DW6352 Weather Reports


Display with metric or nautical units.
time (UTC)temp
F
wind
direction
speed
MPH
gust
MPH
rain 1hr
in
rain 24hr
in
rain mn
in
humidity
%
barometer
mb
20260509061522 46 305 0.0 0.0 0.00 0.00 0.00 57 1001.1
20260509060024 46 305 0.0 0.0 0.00 0.00 0.00 57 1000.9
20260509054517 47 305 1.0 2.0 0.00 0.00 0.00 56 1001.2
20260509053014 48 305 1.0 3.0 0.00 0.00 0.00 50 1001.3
20260509051511 49 305 1.0 3.0 0.00 0.00 0.00 50 1001.3
20260509050008 50 305 0.0 3.0 0.00 0.00 0.00 44 1001.7
20260509044507 51 306 1.0 3.0 0.00 0.00 0.00 41 1001.5
20260509043006 53 306 1.0 3.0 0.00 0.00 0.00 36 1001.5
20260509041508 54 327 1.0 4.0 0.00 0.00 0.00 34 1002.0
20260509040005 55 294 1.0 6.0 0.00 0.00 0.00 33 1001.9
20260509034505 55 281 3.0 7.0 0.00 0.00 0.00 32 1002.0
20260509033004 56 307 4.0 9.0 0.00 0.00 0.00 31 1002.0
20260509031504 57 300 3.0 8.0 0.00 0.00 0.00 31 1001.8
20260509030009 58 277 4.0 11.0 0.00 0.00 0.00 30 1001.8
20260509024504 58 279 7.0 13.0 0.00 0.00 0.00 29 1001.7
20260509023002 59 305 8.0 13.0 0.00 0.00 0.00 29 1001.4
20260509021503 60 313 7.0 17.0 0.00 0.00 0.00 29 1001.4
20260509020005 61 296 11.0 21.0 0.00 0.00 0.00 28 1001.0
20260509014502 62 295 12.0 23.0 0.00 0.00 0.00 28 1000.7
20260509013104 63 301 8.0 16.0 0.00 0.00 0.00 28 1000.5
20260509011600 64 302 10.0 19.0 0.00 0.00 0.00 27 1000.3
20260509004600 66 329 6.0 17.0 0.00 0.00 0.00 22 1000.0
20260509003106 66 286 7.0 16.0 0.00 0.00 0.00 22 1000.1
20260509001557 67 303 10.0 17.0 0.00 0.00 0.00 22 1000.0
20260509000110 67 306 4.0 19.0 0.00 0.00 0.00 22 1000.0
20260508234559 67 303 10.0 19.0 0.00 0.00 0.00 21 1000.1
20260508233055 67 309 9.0 15.0 0.00 0.00 0.00 21 1000.2
20260508231557 67 290 10.0 18.0 0.00 0.00 0.00 21 1000.3
20260508230104 68 322 7.0 12.0 0.00 0.00 0.00 23 1000.4
20260508224550 67 310 8.0 13.0 0.00 0.00 0.00 22 1000.4
20260508223048 67 308 5.0 11.0 0.00 0.00 0.00 22 1000.6
20260508221547 68 272 6.0 17.0 0.00 0.00 0.00 22 1000.7
20260508220046 67 322 5.0 15.0 0.00 0.00 0.00 23 1000.9
20260508214543 67 320 8.0 17.0 0.00 0.00 0.00 23 1001.2
20260508213041 66 246 4.0 11.0 0.00 0.00 0.00 24 1001.3
20260508211540 66 248 7.0 18.0 0.00 0.00 0.00 24 1001.5
20260508210037 66 271 9.0 14.0 0.00 0.00 0.00 23 1001.7
20260508204537 66 217 5.0 19.0 0.00 0.00 0.00 23 1002.0
20260508203032 67 311 9.0 16.0 0.00 0.00 0.00 25 1002.3
20260508201530 64 40 5.0 11.0 0.00 0.00 0.00 28 1002.5
20260508200033 64 320 10.0 19.0 0.00 0.00 0.00 24 1002.8
20260508194543 65 319 9.0 17.0 0.00 0.00 0.00 24 1003.0
20260508193023 63 252 4.0 20.0 0.00 0.00 0.00 25 1003.3
20260508191522 64 292 7.0 12.0 0.00 0.00 0.00 26 1003.4
20260508190020 63 271 4.0 15.0 0.00 0.00 0.00 27 1003.5
20260508184518 62 264 8.0 14.0 0.00 0.00 0.00 27 1003.8
20260508183015 62 288 6.0 12.0 0.00 0.00 0.00 28 1004.0
20260508181525 62 268 7.0 20.0 0.00 0.00 0.00 27 1004.1
20260508180013 63 268 7.0 15.0 0.00 0.00 0.00 28 1004.3
20260508174510 63 266 6.0 15.0 0.00 0.00 0.00 26 1004.5
20260508173008 62 240 7.0 18.0 0.00 0.00 0.00 29 1004.9
20260508171508 61 203 6.0 13.0 0.00 0.00 0.00 32 1005.0
20260508170002 60 254 3.0 14.0 0.00 0.00 0.00 32 1005.4
20260508164559 60 293 2.0 14.0 0.00 0.00 0.00 33 1005.4
20260508163102 59 167 1.0 10.0 0.00 0.00 0.00 38 1005.6
20260508161604 58 193 6.0 10.0 0.00 0.00 0.00 36 1005.8
20260508160049 56 157 3.0 8.0 0.00 0.00 0.00 38 1005.9
20260508154547 55 146 6.0 11.0 0.00 0.00 0.00 38 1006.0
20260508153047 55 255 6.0 9.0 0.00 0.00 0.00 37 1006.1
20260508151542 54 232 5.0 9.0 0.00 0.00 0.00 39 1006.4
20260508150039 53 194 5.0 12.0 0.00 0.00 0.00 40 1006.6
20260508144639 53 192 8.0 12.0 0.00 0.00 0.00 41 1006.6
20260508143044 53 171 7.0 11.0 0.00 0.00 0.00 42 1006.7
20260508141533 52 192 5.0 10.0 0.00 0.00 0.00 43 1006.7
20260508140034 51 223 5.0 12.0 0.00 0.00 0.00 44 1007.0
20260508134525 49 208 3.0 6.0 0.00 0.00 0.00 52 1007.1
20260508133022 47 188 4.0 7.0 0.00 0.00 0.00 56 1007.3
20260508131518 46 198 3.0 6.0 0.00 0.00 0.00 58 1007.5
20260508130014 45 186 3.0 6.0 0.00 0.00 0.00 61 1007.5
20260508124510 42 177 5.0 7.0 0.00 0.00 0.00 69 1007.3
20260508123005 38 179 3.0 6.0 0.00 0.00 0.00 84 1007.3
20260508121502 34 205 2.0 4.0 0.00 0.00 0.00 85 1007.4
20260508120100 33 163 2.0 5.0 0.00 0.00 0.00 84 1007.2
20260508114558 32 175 2.0 4.0 0.00 0.00 0.00 83 1007.2
20260508113054 31 257 2.0 4.0 0.00 0.00 0.00 81 1007.1
20260508111555 31 180 3.0 5.0 0.00 0.00 0.00 80 1007.2
20260508110050 31 173 2.0 3.0 0.00 0.00 0.00 79 1007.2
20260508104547 32 173 1.0 2.0 0.00 0.00 0.00 79 1007.2
20260508103047 32 173 1.0 3.0 0.00 0.00 0.00 79 1007.3
20260508101546 32 173 2.0 3.0 0.00 0.00 0.00 78 1007.4
20260508100044 32 173 2.0 3.0 0.00 0.00 0.00 77 1007.4
20260508094545 33 173 1.0 2.0 0.00 0.00 0.00 77 1007.5
20260508093037 33 173 0.0 0.0 0.00 0.00 0.00 77 1007.5
20260508091535 33 173 2.0 3.0 0.00 0.00 0.00 77 1007.6
20260508090036 34 173 1.0 3.0 0.00 0.00 0.00 77 1007.6
20260508084532 34 173 1.0 2.0 0.00 0.00 0.00 77 1007.6
20260508083029 34 175 1.0 3.0 0.00 0.00 0.00 77 1007.6
20260508081533 34 175 1.0 4.0 0.00 0.00 0.00 76 1007.7
20260508080027 34 360 3.0 4.0 0.00 0.00 0.00 75 1007.5
20260508074526 35 360 0.0 0.0 0.00 0.00 0.00 75 1007.5
20260508073024 35 360 0.0 2.0 0.00 0.00 0.00 75 1007.6
20260508071528 35 360 1.0 3.0 0.00 0.00 0.00 76 1007.8
20260508070022 35 360 1.0 4.0 0.00 0.00 0.00 76 1007.8
20260508064521 35 192 1.0 3.0 0.00 0.00 0.00 75 1007.8
20260508063019 35 192 1.0 3.0 0.00 0.00 0.00 73 1007.9